Tracking 30923 objects as of 1-Jul-2025
HD Live streaming from Space Station
objects crossing your sky now

BREEZE-M R/B

Track BREEZE-M R/B now!


NORAD ID: 38343
Int'l Code: 2012-026B
Perigee: 10,621.0 km
Apogee: 34,438.3 km
Inclination: 9.9 °
Period: 814.9 minutes
Semi major axis: 28900 km
RCS: 4.9161 m2 (large)
Launch date: May 17, 2012
Source: Commonwealth of Independent States (former USSR) (CIS)
Launch site: TYURATAM MISSILE AND SPACE COMPLEX (TTMTR)

Note: This is a ROCKET BODY
Your satellite tracking list
Your tracking list is empty




NASA's NSSDC Master Catalog

Two Line Element Set (TLE):
1 38343U 12026B   25181.32765740 -.00000076  00000-0  00000-0 0  9997
2 38343   9.8857 164.6591 4120553 352.5588   2.6906  1.76702306 84353
Source of the keplerian elements: AFSPC